Other Public Products
Issued by NWS Charleston, SC

Current Version | Previous Version | Text Only | Print | Product List | Glossary Off
Versions: 1 2 3 4 5 6 7 8 9 10 11 12 13 14 15 16 17 18 19 20 21 22 23 24 25 26 27 28 29 30 31 32 33 34 35 36 37 38 39 40 41 42 43 44 45 46 47 48 49 50

810
FPUS82 KCHS 020727
OPUCHS

TEST...KCHS/KSAV Gateway Observations...TEST
National Weather Service Charleston SC
200 AM EST FRI DEC 02 2016

NOTE: "fair" indicates few or no clouds below 12,000 feet with no
significant weather and/or obstructions to visibility.

SCZ050-WAZ558-NCZ071-TXZ119-213-PAZ071-DCZ001-FLZ074-172-MI076-
NYZ176-178-MAZ016-IL014-TNZ027-NJZ106-GAZ044-MD014-020800-
...Gateway Observations for Charleston International...

CITY           SKY/WX    TMP DP  RH WIND       PRES   REMARKS
Chas Airport   CLEAR     47  36  65 W6        30.04R
Seattle        CLOUDY    44  42  93 SE7       30.34R
Charlotte      CLEAR     41  30  65 N6        30.03S
Dallas DFW     PTCLDY    54  33  44 SE8       30.05F
Dallas Love    PTCLDY    52  31  44 S10       30.07S
Philladelphia  CLEAR     42  27  55 W12       29.94R
Wash National  CLOUDY    47  28  47 NW10      30.00R
Baltimore      CLOUDY    43  29  57 W8        29.98R
Miami          CLOUDY    75  74  96 CALM      29.99S
Detroit        CLOUDY    39  34  82 SW14      29.93R WCI  31
Newark         CLEAR     40  27  59 W12       29.87R WCI  33
Laguardia      PTCLDY    44  27  51 W14G25    29.86R
J F K          CLEAR     43  28  55 W17       29.88R
Boston Logan   CLEAR     42  31  64 W14       29.72R
Ft. Lauderdale CLOUDY    72  72 100 CALM      29.98S
Chicago O`Hare DRIZZLE   37  31  78 W8        30.01R WCI  31
Chicago Midway DRIZZLE   36  32  85 W6        30.03R WCI  31
Houston Bush   PTCLDY    48  42  80 CALM      30.09F
Houston Hobby  MOCLDY    57  47  69 E8        30.07F
Nashville      CLEAR     34  28  79 S3        30.16R
Atlanta        CLEAR     40  31  70 W9        30.11R WCI  34

$$

GAZ044-118-TXZ119-213-NCZ071-DCZ001-MDZ014-506-PAZ021-071-NJZ106-
NYZ176-178-MAZ106-OHZ011-021-055-MIZ076-KYZ091-ILZ014-INZ047-
MNZ060-020800-
...Gateway Observations for Savannah International...

CITY           SKY/WX    TMP DP  RH WIND       PRES   REMARKS
Savannah Arpt  CLEAR     47  35  63 NW7       30.08R
Atlanta        CLEAR     40  31  70 W9        30.11R WCI  34
Charlotte      CLEAR     41  30  65 N6        30.03S
Dallas DFW     PTCLDY    54  33  44 SE8       30.05F
Houston Bush   PTCLDY    48  42  80 CALM      30.09F
Wash National  CLOUDY    47  28  47 NW10      30.00R
Wash Dulles    CLOUDY    44  27  51 NW9       30.00R
Baltimore      CLOUDY    43  29  57 W8        29.98R
Philadelphia   CLEAR     42  27  55 W12       29.94R
Newark         CLEAR     40  27  59 W12       29.87R WCI  33
Laguardia      PTCLDY    44  27  51 W14G25    29.86R
J F K          CLEAR     43  28  55 W17       29.88R
Boston         CLEAR     42  31  64 W14       29.72R
Pittsburg      CLOUDY    39  29  67 W10       29.96R WCI  32
Akron          CLOUDY    38  29  70 W10       29.97R WCI  31
Cleveland      CLOUDY    39  31  72 W13       29.98R WCI  31
Cincinnati     CLOUDY    35  29  78 W5        30.07R WCI  31
Columbus       CLOUDY    37  30  75 W9        30.04S WCI  30
Detroit        CLOUDY    39  34  82 SW14      29.93R WCI  31
Chicago O`Hare DRIZZLE   37  31  78 W8        30.01R WCI  31
Minneapolis    CLOUDY    32  23  69 N7        30.06R WCI  26
Indianapolis   CLOUDY    36  28  73 W12       30.08R WCI  28

$$




USA.gov is the U.S. government's official web portal to all federal, state and local government web resources and services.